H1 CPF 1 NER 2021 4 20 9 6101 glonass138 H2 1805301 9138 43508 2021 4 20 0 0 0 2021 4 23 23 45 0 900 1 1 0 0 0 H9 10 0 59324 0.00000 0 7247173.267 -24381295.557 -2049562.299 10 0 59324 900.00000 0 7107926.023 -24482437.156 1167086.711 10 0 59324 1800.00000 0 6873838.547 -24188791.200 4361097.952 10 0 59324 2700.00000 0 6600654.010 -23496101.353 7470525.627 10 0 59324 3600.00000 0 6344383.153 -22413476.674 10435089.278 10 0 59324 4500.00000 0 6158718.592 -20963112.711 13197337.136 10 0 59324 5400.00000 0 6092556.422 -19179483.728 15703752.862 10 0 59324 6300.00000 0 6187729.572 -17108039.605 17905784.806 10 0 59324 7200.00000 0 6477048.239 -14803461.731 19760778.514 10 0 59324 8100.00000 0 6982729.761 -12327550.085 21232795.317 10 0 59324 9000.00000 0 7715283.956 -9746828.679 22293302.081 10 0 59324 9900.00000 0 8672901.009 -7129968.049 22921719.550 10 0 59324 10800.00000 0 9841368.152 -4545130.615 23105819.370 10 0 59324 11700.00000 0 11194519.620 -2057347.823 22841962.510 10 0 59324 12600.00000 0 12695202.222 273963.336 22135174.511 10 0 59324 13500.00000 0 14296717.683 2397242.612 20999055.823 10 0 59324 14400.00000 0 15944683.005 4270695.565 19455528.297 10 0 59324 15300.00000 0 17579232.606 5863790.875 17534421.794 10 0 59324 16200.00000 0 19137471.486 7158284.194 15272907.781 10 0 59324 17100.00000 0 20556077.805 8148726.346 12714789.611 10 0 59324 18000.00000 0 21773946.415 8842434.761 9909662.139 10 0 59324 18900.00000 0 22734762.638 9258929.591 6911955.973 10 0 59324 19800.00000 0 23389397.886 9428858.314 3779884.193 10 0 59324 20700.00000 0 23698025.613 9392454.239 574311.763 10 0 59324 21600.00000 0 23631867.501 9197594.319 -2642430.347 10 0 59324 22500.00000 0 23174494.984 8897538.831 -5807762.852 10 0 59324 23400.00000 0 22322629.918 8548449.244 -8860083.138 10 0 59324 24300.00000 0 21086409.289 8206790.341 -11739972.784 10 0 59324 25200.00000 0 19489101.638 7926727.679 -14391363.111 10 0 59324 26100.00000 0 17566286.209 7757631.834 -16762635.007 10 0 59324 27000.00000 0 15364528.678 7741796.266 -18807630.781 10 0 59324 27900.00000 0 12939608.637 7912466.525 -20486557.790 10 0 59324 28800.00000 0 10354373.072 8292265.079 -21766765.768 10 0 59324 29700.00000 0 7676305.664 8892079.126 -22623382.731 10 0 59324 30600.00000 0 4974913.521 9710458.902 -23039797.204 10 0 59324 31500.00000 0 2319040.564 10733552.259 -23007977.704 10 0 59324 32400.00000 0 -225780.613 11935578.505 -22528623.742 10 0 59324 33300.00000 0 -2599828.427 13279821.678 -21611145.904 10 0 59324 34200.00000 0 -4751439.954 14720101.448 -20273475.878 10 0 59324 35100.00000 0 -6638913.940 16202659.790 -18541710.604 10 0 59324 36000.00000 0 -8231991.112 17668384.057 -16449597.800 10 0 59324 36900.00000 0 -9512851.541 19055272.933 -14037873.245 10 0 59324 37800.00000 0 -10476589.207 20301041.562 -11353462.982 10 0 59324 38700.00000 0 -11131145.878 21345756.371 -8448566.158 10 0 59324 39600.00000 0 -11496709.027 22134388.771 -5379636.684 10 0 59324 40500.00000 0 -11604601.000 22619180.511 -2206283.758 10 0 59324 41400.00000 0 -11495707.990 22761721.313 1009887.182 10 0 59324 42300.00000 0 -11218516.421 22534651.667 4206470.174 10 0 59324 43200.00000 0 -10826840.807 21922919.418 7321467.831 10 0 59324 44100.00000 0 -10377339.744 20924537.597 10294490.300 10 0 59324 45000.00000 0 -9926925.355 19550811.850 13067920.872 10 0 59324 45900.00000 0 -9530175.650 17826027.980 15588026.031 10 0 59324 46800.00000 0 -9236858.780 15786612.535 17805988.974 10 0 59324 47700.00000 0 -9089673.270 13479801.205 19678847.250 10 0 59324 48600.00000 0 -9122298.941 10961869.953 21170317.251 10 0 59324 49500.00000 0 -9357840.247 8296001.685 22251490.524 10 0 59324 50400.00000 0 -9807727.247 5549876.121 22901389.201 10 0 59324 51300.00000 0 -10471120.481 2793081.679 23107370.543 10 0 59324 52200.00000 0 -11334845.175 94455.326 22865373.149 10 0 59324 53100.00000 0 -12373858.292 -2480540.598 22180000.177 10 0 59324 54000.00000 0 -13552229.987 -4872297.206 21064437.673 10 0 59324 54900.00000 0 -14824599.650 -7029291.895 19540208.961 10 0 59324 55800.00000 0 -16138046.945 -8909983.377 17636768.922 10 0 59324 56700.00000 0 -17434300.734 -10484290.894 15390944.870 10 0 59324 57600.00000 0 -18652194.416 -11734596.487 12846233.612 10 0 59324 58500.00000 0 -19730265.351 -12656228.723 10051967.176 10 0 59324 59400.00000 0 -20609389.516 -13257407.818 7062362.388 10 0 59324 60300.00000 0 -21235340.438 -13558654.539 3935471.990 10 0 59324 61200.00000 0 -21561164.046 -13591687.807 732057.415 10 0 59324 62100.00000 0 -21549268.370 -13397857.663 -2485594.857 10 0 59324 63000.00000 0 -21173138.653 -13026180.096 -5654889.946 10 0 59324 63900.00000 0 -20418604.021 -12531057.341 -8714149.731 10 0 59324 64800.00000 0 -19284600.790 -11969780.841 -11603821.777 10 0 59324 65700.00000 0 -17783398.725 -11399923.523 -14267647.500 10 0 59324 66600.00000 0 -15940279.491 -10876732.775 -16653765.707 10 0 59324 67500.00000 0 -13792679.786 -10450635.546 -18715729.269 10 0 59324 68400.00000 0 -11388834.381 -10164962.093 -20413414.463 10 0 59324 69300.00000 0 -8785975.546 -10053985.447 -21713804.879 10 0 59324 70200.00000 0 -6048163.965 -10141360.089 -22591634.572 10 0 59324 71100.00000 0 -3243841.624 -10439026.116 -23029878.088 10 0 59324 72000.00000 0 -443208.805 -10946625.359 -23020078.119 10 0 59324 72900.00000 0 2284465.631 -11651454.014 -22562504.911 10 0 59324 73800.00000 0 4873488.972 -12528953.656 -21666144.772 10 0 59324 74700.00000 0 7264234.665 -13543719.677 -20348518.427 10 0 59324 75600.00000 0 9405374.734 -14650984.379 -18635333.182 10 0 59324 76500.00000 0 11255762.692 -15798511.965 -16559976.037 10 0 59324 77400.00000 0 12785889.660 -16928825.348 -14162857.954 10 0 59324 78300.00000 0 13978854.582 -17981670.733 -11490622.310 10 0 59324 79200.00000 0 14830809.704 -18896616.002 -8595233.174 10 0 59324 80100.00000 0 15350864.548 -19615673.299 -5532961.436 10 0 59324 81000.00000 0 15560454.307 -20085835.277 -2363288.778 10 0 59324 81900.00000 0 15492201.036 -20261418.169 852249.000 10 0 59324 82800.00000 0 15188317.136 -20106113.043 4051256.491 10 0 59324 83700.00000 0 14698619.741 -19594658.996 7171687.700 10 0 59324 84600.00000 0 14078240.722 -18714067.956 10153046.086 10 0 59324 85500.00000 0 13385129.462 -17464349.680 12937552.359 10 0 59325 0.00000 0 12677453.970 -15858706.511 15471257.737 10 0 59325 900.00000 0 12011009.994 -13923189.035 17705081.889 10 0 59325 1800.00000 0 11436746.173 -11695827.782 19595755.418 10 0 59325 2700.00000 0 10998510.301 -9225274.808 21106650.416 10 0 59325 3600.00000 0 10731109.258 -6569012.352 22208483.325 10 0 59325 4500.00000 0 10658764.791 -3791201.073 22879877.474 10 0 59325 5400.00000 0 10794029.121 -960256.207 23107775.152 10 0 59325 6300.00000 0 11137205.934 1853749.421 22887691.668 10 0 59325 7200.00000 0 11676301.317 4581749.229 22223806.570 10 0 59325 8100.00000 0 12387507.277 7158304.648 21128890.018 10 0 59325 9000.00000 0 13236198.477 9524077.439 19624065.119 10 0 59325 9900.00000 0 14178401.455 11628050.943 17738409.904 10 0 59325 10800.00000 0 15162675.832 13429408.846 15508405.519 10 0 59325 11700.00000 0 16132329.556 14898993.789 12977240.083 10 0 59325 12600.00000 0 17027875.879 16020285.235 10193980.544 10 0 59325 13500.00000 0 17789629.173 16789855.834 7212627.583 10 0 59325 14400.00000 0 18360330.277 17217287.165 4091071.158 10 0 59325 15300.00000 0 18687690.257 17324548.319 889966.670 10 0 59325 16200.00000 0 18726744.403 17144863.523 -2328446.384 10 0 59325 17100.00000 0 18441915.846 16721116.718 -5501559.963 10 0 59325 18000.00000 0 17808700.156 16103860.789 -8567622.746 10 0 59325 18900.00000 0 16814898.198 15349016.150 -11466950.405 10 0 59325 19800.00000 0 15461343.527 14515356.754 -14143096.323 10 0 59325 20700.00000 0 13762092.192 13661890.725 -16543958.861 10 0 59325 21600.00000 0 11744065.579 12845247.307 -18622802.816 10 0 59325 22500.00000 0 9446160.221 12117181.470 -20339174.542 10 0 59325 23400.00000 0 6917861.158 11522302.348 -21659692.444 10 0 59325 24300.00000 0 4217416.364 11096121.943 -22558697.411 10 0 59325 25200.00000 0 1409648.182 10863506.697 -23018750.642 10 0 59325 26100.00000 0 -1436506.995 10837597.257 -23030969.457 10 0 59325 27000.00000 0 -4250628.475 11019241.707 -22595195.045 10 0 59325 27900.00000 0 -6963501.139 11396965.719 -21719989.372 10 0 59325 28800.00000 0 -9509753.765 11947480.315 -20422461.797 10 0 59325 29700.00000 0 -11830336.566 12636705.194 -18727929.240 10 0 59325 30600.00000 0 -13874735.620 13421263.853 -16669416.872 10 0 59325 31500.00000 0 -15602832.863 14250386.888 -14287009.403 10 0 59325 32400.00000 0 -16986335.434 15068142.667 -11627065.849 10 0 59325 33300.00000 0 -18009716.156 15815900.878 -8741313.274 10 0 59325 34200.00000 0 -18670627.450 16434924.653 -5685837.457 10 0 59325 35100.00000 0 -18979773.095 16868981.672 -2519990.340 10 0 59325 36000.00000 0 -18960244.978 17066863.911 694764.259 10 0 59325 36900.00000 0 -18646354.264 16984709.669 3896043.922 10 0 59325 37800.00000 0 -18082007.654 16588029.934 7021756.571 10 0 59325 38700.00000 0 -17318698.150 15853353.713 10011301.571 10 0 59325 39600.00000 0 -16413195.775 14769423.018 12806739.705 10 0 59325 40500.00000 0 -15425035.907 13337887.179 15353909.679 10 0 59325 41400.00000 0 -14413910.988 11573466.999 17603470.061 10 0 59325 42300.00000 0 -13437075.085 9503581.472 19511847.086 10 0 59325 43200.00000 0 -12546869.858 7167451.865 21042070.893 10 0 59325 44100.00000 0 -11788475.141 4614719.550 22164484.894 10 0 59325 45000.00000 0 -11197977.797 1903633.937 22857315.384 10 0 59325 45900.00000 0 -10800839.163 -901115.628 23107091.096 10 0 59325 46800.00000 0 -10610824.817 -3730835.604 22908905.049 10 0 59325 47700.00000 0 -10629441.298 -6515432.161 22266513.730 10 0 59325 48600.00000 0 -10845903.485 -9186076.868 21192271.496 10 0 59325 49500.00000 0 -11237634.365 -11677825.108 19706900.807 10 0 59325 50400.00000 0 -11771276.928 -13932079.658 17839101.913 10 0 59325 51300.00000 0 -12404176.491 -15898798.033 15625008.375 10 0 59325 52200.00000 0 -13086272.043 -17538352.376 13107497.738 10 0 59325 53100.00000 0 -13762317.797 -18822964.565 10335369.574 10 0 59325 54000.00000 0 -14374341.871 -19737656.691 7362405.777 10 0 59325 54900.00000 0 -14864238.627 -20280676.971 4246330.596 10 0 59325 55800.00000 0 -15176384.960 -20463382.975 1047690.260 10 0 59325 56700.00000 0 -15260169.358 -20309586.932 -2171326.037 10 0 59325 57600.00000 0 -15072325.737 -19854390.611 -5348100.514 10 0 59325 58500.00000 0 -14578972.003 -19142558.985 -8420812.141 10 0 59325 59400.00000 0 -13757265.545 -18226501.720 -11329648.189 10 0 59325 60300.00000 0 -12596604.001 -17163948.228 -14017977.432 10 0 59325 61200.00000 0 -11099318.958 -16015415.250 -16433461.047 10 0 59325 62100.00000 0 -9280831.803 -14841574.717 -18529078.757 10 0 59325 63000.00000 0 -7169263.766 -13700633.798 -20264049.604 10 0 59325 63900.00000 0 -4804515.531 -12645838.399 -21604628.938 10 0 59325 64800.00000 0 -2236854.124 -11723205.855 -22524766.050 10 0 59325 65700.00000 0 474934.389 -10969582.564 -23006609.745 10 0 59325 66600.00000 0 3265749.573 -10411108.317 -23040852.316 10 0 59325 67500.00000 0 6066646.986 -10062151.569 -22626905.669 10 0 59325 68400.00000 0 8807471.585 -9924759.825 -21772906.671 10 0 59325 69300.00000 0 11419544.706 -9988647.454 -20495552.090 10 0 59325 70200.00000 0 13838293.178 -10231720.441 -18819766.817 10 0 59325 71100.00000 0 16005711.693 -10621114.978 -16778212.165 10 0 59325 72000.00000 0 17872556.508 -11114705.115 -14410644.181 10 0 59325 72900.00000 0 19400180.024 -11663014.993 -11763134.741 10 0 59325 73800.00000 0 20561930.870 -12211454.166 -8887170.784 10 0 59325 74700.00000 0 21344062.240 -12702781.017 -5838649.550 10 0 59325 75600.00000 0 21746112.051 -13079689.728 -2676789.596 10 0 59325 76500.00000 0 21780740.497 -13287411.160 537021.009 10 0 59325 77400.00000 0 21473033.336 -13276217.615 3740416.598 10 0 59325 78300.00000 0 20859301.600 -13003725.547 6871262.632 10 0 59325 79200.00000 0 19985429.364 -12436899.011 9868857.742 10 0 59325 80100.00000 0 18904839.936 -11553669.325 12675105.761 10 0 59325 81000.00000 0 17676166.545 -10344102.638 15235635.370 10 0 59325 81900.00000 0 16360725.626 -8811066.008 17500846.166 10 0 59325 82800.00000 0 15019898.636 -6970363.638 19426861.518 10 0 59325 83700.00000 0 13712531.835 -4850336.828 20976370.638 10 0 59325 84600.00000 0 12492462.313 -2490943.322 22119344.472 10 0 59325 85500.00000 0 11406273.074 57646.714 22833612.382 10 0 59326 0.00000 0 10491370.232 2736881.148 23105289.228 10 0 59326 900.00000 0 9774462.215 5482008.603 22929045.007 10 0 59326 1800.00000 0 9270503.173 8224523.903 22308212.081 10 0 59326 2700.00000 0 8982145.964 10894777.108 21254727.564 10 0 59326 3600.00000 0 8899725.749 13424639.200 19788911.577 10 0 59326 4500.00000 0 9001776.409 15750114.924 17939084.635 10 0 59326 5400.00000 0 9256057.903 17813795.385 15741030.550 10 0 59326 6300.00000 0 9621052.152 19567048.995 13237313.954 10 0 59326 7200.00000 0 10047865.054 20971859.676 10476464.545 10 0 59326 8100.00000 0 10482454.941 22002235.598 7512042.813 10 0 59326 9000.00000 0 10868093.656 22645129.261 4401604.571 10 0 59326 9900.00000 0 11147956.208 22900829.913 1205584.094 10 0 59326 10800.00000 0 11267728.960 22782811.428 -2013882.490 10 0 59326 11700.00000 0 11178125.139 22317041.729 -5194170.358 10 0 59326 12600.00000 0 10837199.948 21540782.621 -8273391.307 10 0 59326 13500.00000 0 10212365.806 20500930.741 -11191606.532 10 0 59326 14400.00000 0 9282020.810 19251969.862 -13892002.252 10 0 59326 15300.00000 0 8036719.867 17853621.439 -16322004.227 10 0 59326 16200.00000 0 6479837.437 16368293.154 -18434308.583 10 0 59326 17100.00000 0 4627692.385 14858433.693 -20187808.269 10 0 59326 18000.00000 0 2509128.452 13383905.860 -21548396.561 10 0 59326 18900.00000 0 164566.889 11999489.105 -22489631.915 10 0 59326 19800.00000 0 -2355429.905 10752616.724 -22993251.301 10 0 59326 20700.00000 0 -4992024.147 9681442.844 -23049522.294 10 0 59326 21600.00000 0 -7680320.359 8813319.970 -22657427.555 10 0 59326 22500.00000 0 -10351842.812 8163750.328 -21824678.562 10 0 59326 23400.00000 0 -12937169.605 7735854.085 -20567558.856 10 0 59326 24300.00000 0 -15368614.011 7520375.550 -18910600.280 10 0 59326 25200.00000 0 -17582841.722 7496225.771 -16886098.923 10 0 59326 26100.00000 0 -19523315.381 7631537.343 -14533480.513 10 0 59326 27000.00000 0 -21142465.162 7885185.644 -11898527.889 10 0 59326 27900.00000 0 -22403495.638 8208711.193 -9032485.808 10 0 59326 28800.00000 0 -23281754.424 8548560.952 -5991060.807 10 0 59326 29700.00000 0 -23765606.516 8848553.100 -2833335.817 10 0 59326 30600.00000 0 -23856779.018 9052460.497 379379.134 10 0 59326 31500.00000 0 -23570163.044 9106603.209 3584737.480 10 0 59326 32400.00000 0 -22933082.447 8962340.286 6720564.626 10 0 59326 33300.00000 0 -21984061.172 8578355.341 9726060.924 10 0 59326 34200.00000 0 -20771141.922 7922639.439 12542975.748 10 0 59326 35100.00000 0 -19349827.372 6974087.537 15116730.239 10 0 59326 36000.00000 0 -17780730.602 5723641.105 17397467.447 10 0 59326 36900.00000 0 -16127033.250 4174928.541 19341010.162 10 0 59326 37800.00000 0 -14451857.464 2344375.943 20909708.746 10 0 59326 38700.00000 0 -12815660.959 260782.641 22073163.496 10 0 59326 39600.00000 0 -11273763.255 -2035621.866 22808808.349 10 0 59326 40500.00000 0 -9874105.430 -4494601.720 23102345.437 10 0 59326 41400.00000 0 -8655335.908 -7057761.708 22948022.557 10 0 59326 42300.00000 0 -7645301.373 -9660742.309 22348748.349 10 0 59326 43200.00000 0 -6860005.042 -12235673.451 21316042.774 10 0 59326 44100.00000 0 -6303075.369 -14713786.711 19869823.292 10 0 59326 45000.00000 0 -5965767.198 -17028078.809 18038030.000 10 0 59326 45900.00000 0 -5827495.322 -19115916.816 15856095.900 10 0 59326 46800.00000 0 -5856878.263 -20921477.391 13366271.294 10 0 59326 47700.00000 0 -6013248.739 -22397918.653 10616814.255 10 0 59326 48600.00000 0 -6248567.474 -23509193.978 7661061.808 10 0 59326 49500.00000 0 -6509659.806 -24231431.547 4556399.017 10 0 59326 50400.00000 0 -6740680.535 -24553821.188 1363145.657 10 0 59326 51300.00000 0 -6885702.382 -24478970.685 -1856617.964 10 0 59326 52200.00000 0 -6891317.747 -24022715.933 -5040262.916 10 0 59326 53100.00000 0 -6709142.512 -23213392.423 -8125836.910 10 0 59326 54000.00000 0 -6298114.492 -22090598.479 -11053278.269 10 0 59326 54900.00000 0 -5626487.637 -20703502.326 -13765593.929 10 0 59326 55800.00000 0 -4673435.974 -19108764.555 -16209977.469 10 0 59326 56700.00000 0 -3430197.863 -17368163.942 -18338844.543 10 0 59326 57600.00000 0 -1900710.639 -15546027.101 -20110764.877 10 0 59326 58500.00000 0 -101707.595 -13706570.669 -21491272.199 10 0 59326 59400.00000 0 1937728.011 -11911268.217 -22453536.213 10 0 59326 60300.00000 0 4177134.177 -10216352.676 -22978883.628 10 0 59326 61200.00000 0 6566126.586 -8670559.119 -23057158.363 10 0 59326 62100.00000 0 9046279.849 -7313202.154 -22686914.360 10 0 59326 63000.00000 0 11553355.393 -6172667.851 -21875437.749 10 0 59326 63900.00000 0 14019783.158 -5265382.398 -20638598.398 10 0 59326 64800.00000 0 16377293.849 -4595299.410 -19000534.222 10 0 59326 65700.00000 0 18559592.224 -4153925.881 -16993174.744 10 0 59326 66600.00000 0 20504960.084 -3920884.076 -14655613.567 10 0 59326 67500.00000 0 22158680.835 -3864984.079 -12033342.218 10 0 59326 68400.00000 0 23475184.853 -3945760.251 -9177360.529 10 0 59326 69300.00000 0 24419826.674 -4115405.433 -6143181.165 10 0 59326 70200.00000 0 24970220.494 -4321020.050 -2989747.910 10 0 59326 71100.00000 0 25117079.044 -4507080.150 221711.017 10 0 59326 72000.00000 0 24864521.684 -4618019.397 3428872.015 10 0 59326 72900.00000 0 24229839.876 -4600815.381 6569524.262 10 0 59326 73800.00000 0 23242730.863 -4407470.661 9582773.476 10 0 59326 74700.00000 0 21944032.519 -3997283.648 12410217.925 10 0 59326 75600.00000 0 20384013.068 -3338813.365 14997074.162 10 0 59326 76500.00000 0 18620287.626 -2411455.213 17293231.214 10 0 59326 77400.00000 0 16715448.872 -1206561.205 19254213.348 10 0 59326 78300.00000 0 14734510.599 271942.810 20842033.682 10 0 59326 79200.00000 0 12742270.322 2007469.527 22025923.008 10 0 59326 80100.00000 0 10800700.180 3971216.776 22782920.548 10 0 59326 81000.00000 0 8966473.910 6123130.995 23098315.992 10 0 59326 81900.00000 0 7288731.779 8413348.974 22965934.789 10 0 59326 82800.00000 0 5807175.593 10784059.491 22388261.306 10 0 59326 83700.00000 0 4550572.168 13171709.178 21376397.384 10 0 59326 84600.00000 0 3535726.869 15509462.660 19949856.486 10 0 59326 85500.00000 0 2766969.569 17729816.051 18136196.606 10 0 59327 0.00000 0 2236174.148 19767256.362 15970498.006 10 0 59327 900.00000 0 1923310.728 21560856.800 13494694.294 10 0 59327 1800.00000 0 1797507.183 23056700.486 10756769.498 10 0 59327 2700.00000 0 1818576.012 24210030.381 7809834.501 10 0 59327 3600.00000 0 1938941.537 24987036.439 4711100.792 10 0 59327 4500.00000 0 2105886.559 25366203.227 1520770.707 10 0 59327 5400.00000 0 2264022.870 25339161.229 -1699134.254 10 0 59327 6300.00000 0 2357880.537 24911004.945 -4885984.015 10 0 59327 7200.00000 0 2334505.343 24100063.623 -7977765.074 10 0 59327 8100.00000 0 2145953.153 22937133.664 -10914295.569 10 0 59327 9000.00000 0 1751574.093 21464204.583 -13638405.604 10 0 59327 9900.00000 0 1119988.311 19732732.109 -16097058.757 10 0 59327 10800.00000 0 230668.154 17801531.191 -18242392.085 10 0 59327 11700.00000 0 -924941.658 15734377.828 -20032653.694 10 0 59327 12600.00000 0 -2342814.464 13597420.940 -21433019.080 10 0 59327 13500.00000 0 -4006269.623 11456513.269 -22416270.242 10 0 59327 14400.00000 0 -5886442.061 9374573.494 -22963324.400 10 0 59327 15300.00000 0 -7943274.429 7409090.151 -23063602.273 10 0 59327 16200.00000 0 -10126990.879 5609871.553 -22715229.212 10 0 59327 17100.00000 0 -12379991.207 4017135.242 -21925065.728 10 0 59327 18000.00000 0 -14639086.348 2660015.996 -20708567.342 10 0 59327 18900.00000 0 -16837982.024 1555553.503 -19089476.939 10 0 59327 19800.00000 0 -18909906.941 708200.521 -17099355.992 10 0 59327 20700.00000 0 -20790275.828 109870.423 -14776964.149 10 0 59327 21600.00000 0 -22419276.300 -259479.747 -12167499.541 10 0 59327 22500.00000 0 -23744271.651 -430757.067 -9321714.793 10 0 59327 23400.00000 0 -24721919.451 -444179.055 -6294926.296 10 0 59327 24300.00000 0 -25319917.787 -347325.564 -3145936.206 10 0 59327 25200.00000 0 -25518306.648 -192879.760 64111.599 10 0 59327 26100.00000 0 -25310270.611 -36154.606 3272919.059 10 0 59327 27000.00000 0 -24702409.999 67489.934 6418241.721 10 0 59327 27900.00000 0 -23714469.866 65229.301 9439093.283 10 0 59327 28800.00000 0 -22378538.893 -90752.930 12276923.487 10 0 59327 29700.00000 0 -20737752.280 -441006.481 14876746.822 10 0 59327 30600.00000 0 -18844553.186 -1016865.301 17188200.665 10 0 59327 31500.00000 0 -16758585.517 -1838890.078 19166512.930 10 0 59327 32400.00000 0 -14544305.739 -2915768.070 20773361.382 10 0 59327 33300.00000 0 -12268412.770 -4243716.884 21977608.880 10 0 59327 34200.00000 0 -9997202.224 -5806417.853 22755901.142 10 0 59327 35100.00000 0 -7793954.078 -7575482.871 23093116.277 10 0 59327 36000.00000 0 -5716461.238 -9511436.495 22982657.887 10 0 59327 36900.00000 0 -3814800.646 -11565173.911 22426586.265 10 0 59327 37800.00000 0 -2129438.468 -13679835.656 21435585.024 10 0 59327 38700.00000 0 -689747.211 -15793022.786 20028763.249 10 0 59327 39600.00000 0 487004.153 -17839261.699 18233296.179 10 0 59327 40500.00000 0 1396145.549 -19752617.277 16083910.294 10 0 59327 41400.00000 0 2045566.252 -21469346.337 13622221.522 10 0 59327 42300.00000 0 2455142.236 -22930481.081 10895938.240 10 0 59327 43200.00000 0 2655654.565 -24084234.663 7957943.436 10 0 59327 44100.00000 0 2687244.370 -24888127.768 4865273.000 10 0 59327 45000.00000 0 2597469.684 -25310746.304 1678009.580 10 0 59327 45900.00000 0 2439046.515 -25333055.434 -1541886.599 10 0 59327 46800.00000 0 2267370.246 -24949213.591 -4731786.963 10 0 59327 47700.00000 0 2137923.077 -24166851.097 -7829619.610 10 0 59327 48600.00000 0 2103678.398 -23006800.717 -10775085.447 10 0 59327 49500.00000 0 2212613.352 -21502290.659 -13510840.786 10 0 59327 50400.00000 0 2505436.299 -19697633.543 -15983622.275 10 0 59327 51300.00000 0 3013626.883 -17646466.238 -18145291.383 10 0 59327 52200.00000 0 3757872.982 -15409614.546 -19953777.437 10 0 59327 53100.00000 0 4746971.870 -13052672.598 -21373900.275 10 0 59327 54000.00000 0 5977243.094 -10643398.701 -22378056.408 10 0 59327 54900.00000 0 7432478.775 -8249036.887 -22946755.354 10 0 59327 55800.00000 0 9084434.113 -5933676.342 -23068995.968 10 0 59327 56700.00000 0 10893838.088 -3755758.890 -22742475.864 10 0 59327 57600.00000 0 12811882.347 -1765838.157 -21973630.343 10 0 59327 58500.00000 0 14782126.047 -4683.232 -20777500.533 10 0 59327 59400.00000 0 16742737.068 1498195.136 -19177433.804 10 0 59327 60300.00000 0 18628975.809 2725535.722 -17204622.655 10 0 59327 61200.00000 0 20375817.628 3672795.584 -14897491.401 10 0 59327 62100.00000 0 21920604.175 4348078.722 -12300942.922 10 0 59327 63000.00000 0 23205612.744 4771529.600 -9465480.322 10 0 59327 63900.00000 0 24180436.088 4974218.930 -6446220.953 10 0 59327 64800.00000 0 24804073.299 4996570.465 -3301822.206 10 0 59327 65700.00000 0 25046644.415 4886396.659 -93340.193 10 0 59327 66600.00000 0 24890657.285 4696627.403 3116956.151 10 0 59327 67500.00000 0 24331774.105 4482828.706 6266792.367 10 0 59327 68400.00000 0 23379045.958 4300616.828 9295093.655 10 0 59327 69300.00000 0 22054606.047 4203077.444 12143164.563 10 0 59327 70200.00000 0 20392834.798 4238298.947 14755820.564 10 0 59327 71100.00000 0 18439031.955 4447123.961 17082450.104 10 0 59327 72000.00000 0 16247651.123 4861213.709 19077987.110 10 0 59327 72900.00000 0 13880170.119 5501506.695 20703775.996 10 0 59327 73800.00000 0 11402685.248 6377136.605 21928313.314 10 0 59327 74700.00000 0 8883328.845 7484855.184 22727852.531 10 0 59327 75600.00000 0 6389616.341 8808984.936 23086861.036 10 0 59327 76500.00000 0 3985831.819 10321904.662 22998321.044 10 0 59327 77400.00000 0 1730559.425 11985048.749 22463868.804 10 0 59327 78300.00000 0 -325538.134 13750380.032 21493769.293 10 0 59327 79200.00000 0 -2141602.867 15562276.343 20106726.373 10 0 59327 80100.00000 0 -3688049.075 17359753.555 18329531.269 10 0 59327 81000.00000 0 -4947554.896 19078933.728 16196555.099 10 0 59327 81900.00000 0 -5915536.938 20655656.356 13749094.030 10 0 59327 82800.00000 0 -6600088.424 22028124.158 11034578.600 10 0 59327 83700.00000 0 -7021383.640 23139472.907 8105661.419 10 0 59327 84600.00000 0 -7210573.835 23940157.324 5019200.113 10 0 59327 85500.00000 0 -7208221.163 24390052.166 1835154.821 99